Tracking 19795 objects as of 20-Jul-2019
HD Live streaming from Space Station
objects crossing your sky now

DMSP 5D-3 F16 DEB

Track DMSP 5D-3 F16 DEB now!
10-day predictions


NORAD ID: 28056
Int'l Code: 2003-048C
Perigee: 825.1 km
Apogee: 829.5 km
Inclination: 98.6 °
Period: 101.3 minutes
Semi major axis: 7198 km
RCS: 0.072 m2 (small)
Launch date: October 18, 2003
Source: United States (US)
Launch site: AIR FORCE WESTERN TEST RANGE (AFWTR)

Note: This is SATELLITE DEBRIS
aabbcc
Your satellite tracking list
Your tracking list is empty




NASA's NSSDC Master Catalog

Two Line Element Set (TLE):
1 28056U 03048C   19201.16773864  .00000286  00000-0  15040-3 0  9990
2 28056  98.6374 188.5140 0003048 359.8677   0.2500 14.21534102814842
Source of the keplerian elements: AFSPC